Flag for Canada Weather past 2 weeks in Clarington, Ontario, Canada

Now
41 °F

Passing clouds.


Feels Like: 41 °F
Forecast: 39 / 48 °F
Wind: No wind

Location: Peterborough Airport


UV Index: 0 (Low)

Visibility: 9 mi


Pressure: 30.05 "Hg

Humidity: 70%

Dew point: 32 °F

Location of ClaringtonLocation

Historic Weather in Clarington

°F

Clarington temperature yesterday

Maximum temperature yesterday: 54 °F (at 4:00 PM)
Minimum temperature yesterday: 30 °F (at 3:00 AM)
Average temperature yesterday: 42 °F

Past Weeks' High & Low Weather Summary

 TemperatureHumidityPressure
High70 °F (Apr 14, 10:50 AM)100% (Apr 13, 8:00 AM)30.64 "Hg (Apr 13, 8:00 AM)
Low19 °F (Apr 16, 5:00 AM)24% (Apr 24, 4:00 PM)29.53 "Hg (Apr 14, 11:00 AM)
Average43 °F71%30.03 "Hg
* Reported Apr 9 11:00 PM — Apr 24 11:00 PM, Clarington, Weather by CustomWeather, © 2014

Note: Actual official high and low records may vary slightly from our data, if they occured in-between our weather recording intervals... More about our weather records

Advertising

Historic Weather Conditions — Data for Previous 24 hours

 ConditionsComfort  
Time TempWeatherWind HumidityBarometerVisibility
11:00 PM
Apr 24
43 °FOvercast.2 mph71%30.06 "Hg9 mi
10:00 PM43 °FPassing clouds.No wind61%30.07 "Hg9 mi
9:00 PM45 °FScattered clouds.5 mph49%30.06 "Hg9 mi
8:00 PM50 °FScattered clouds.6 mph30%30.06 "Hg9 mi
7:00 PM52 °FSunny.8 mph30%30.06 "Hg9 mi
6:00 PM54 °FSunny.9 mph26%30.07 "Hg9 mi
5:00 PM54 °FSunny.10 mph30%30.06 "Hg9 mi
4:00 PM54 °FSunny.12 mph24%30.07 "Hg9 mi
3:00 PM52 °FSunny.7 mph30%30.09 "Hg9 mi
2:00 PM50 °FSunny.8 mph32%30.10 "Hg9 mi
1:00 PM50 °FSunny.14 mph28%30.12 "Hg9 mi
12:00 PM46 °FSunny.13 mph32%30.13 "Hg9 mi
11:00 AM45 °FSunny.14 mph34%30.14 "Hg9 mi
10:00 AM43 °FSunny.13 mph36%30.15 "Hg9 mi
9:00 AM39 °FSunny.12 mph45%30.15 "Hg9 mi
8:00 AM36 °FSunny.10 mph60%30.14 "Hg9 mi
7:00 AM32 °FClear.7 mph69%30.14 "Hg9 mi
6:00 AM30 °FClear.8 mph69%30.11 "Hg9 mi
5:00 AM30 °FClear.7 mph75%30.08 "Hg9 mi
4:00 AM30 °FClear.6 mph75%30.07 "Hg9 mi
3:00 AM30 °FClear.5 mph75%30.07 "Hg9 mi
2:00 AM32 °FClear.5 mph69%30.07 "Hg9 mi
1:00 AM34 °FClear.8 mph65%30.07 "Hg9 mi
12:00 AM36 °FClear.9 mph60%30.06 "Hg9 mi
Weather by CustomWeather, © 2014

See weather overview